Theta_e
299 299 300 300 301 304 306 307 305 303 303 304 306 308 309 310 310 311 315 312 314 314 318 319 320 320 322 320 320 321 319 320 320 322 325 325 325 335 334 339 337 337 352 353 353
300 300 301 301 301 304 305 306 306 303 303 305 306 308 309 310 310 314 312 313 316 317 316 318 317 318 317 319 319 320 320 321 322 323 324 323 323 331 329 330 338 345 351 352 351
301 302 302 302 302 304 306 306 304 303 309 309 307 308 309 309 317 314 314 312 316 318 319 319 318 315 316 317 319 319 320 322 324 323 325 324 322 327 327 328 343 351 349 348 349
302 303 303 303 303 304 307 307 306 307 311 308 307 308 309 312 315 320 319 315 316 319 319 319 317 316 315 316 318 318 319 322 323 324 323 322 322 323 328 327 341 341 342 343 343
303 303 303 304 304 304 307 310 311 311 312 308 307 308 310 316 314 316 317 318 317 317 317 315 315 315 315 317 317 318 319 321 322 323 323 322 322 322 323 327 340 339 339 340 340
302 303 303 304 305 304 307 312 313 313 312 308 308 308 313 313 314 318 318 316 316 315 316 315 314 314 316 316 316 318 319 320 321 320 320 320 322 322 322 326 338 338 337 336 336
303 303 303 304 305 304 307 312 312 310 311 308 308 310 315 313 315 319 316 317 315 316 314 315 316 315 316 316 316 318 318 320 320 320 319 321 320 320 321 329 338 336 334 333 335
303 303 304 304 305 305 308 311 313 311 309 308 309 315 315 313 317 316 318 317 315 314 314 315 317 315 315 315 317 316 316 317 319 320 320 320 320 320 321 327 335 334 332 330 329
304 304 304 304 305 306 308 311 315 313 309 308 310 316 316 319 320 318 318 317 316 316 317 318 318 317 317 315 314 315 316 317 320 320 321 319 319 321 323 323 329 329 327 327 326
304 304 305 305 305 306 309 312 317 315 309 313 315 316 316 320 319 317 316 317 317 317 316 316 314 314 312 313 315 315 317 317 318 320 319 318 318 320 321 322 322 328 328 326 323
303 304 305 305 306 307 311 314 315 317 316 319 320 318 321 321 317 315 315 317 316 316 314 314 312 311 312 313 315 316 317 318 319 320 319 319 319 320 321 320 320 321 327 325 322
303 304 305 306 308 313 314 315 314 314 313 316 316 319 323 322 320 316 316 315 315 313 314 314 314 314 315 314 315 316 315 316 317 318 319 321 323 321 321 320 319 320 321 323 322
302 303 305 307 310 315 316 313 314 315 316 318 318 318 317 317 317 317 316 315 315 315 314 314 316 318 317 317 316 315 315 315 316 317 318 319 323 321 321 320 321 321 321 322 323
303 304 306 308 313 313 313 311 312 315 319 320 320 319 319 319 319 319 318 315 315 316 317 316 317 318 318 319 318 317 318 318 318 318 316 317 317 321 321 321 321 320 321 320 322
302 304 306 307 309 314 310 310 312 316 329 323 319 320 319 319 320 319 319 318 315 317 318 318 318 317 318 318 319 318 319 317 319 318 316 316 314 316 319 320 320 319 318 318 320
303 306 308 310 311 311 310 311 313 320 328 322 320 319 318 318 319 319 320 318 318 316 316 316 318 318 318 319 318 319 319 317 316 316 316 315 315 315 318 319 320 321 320 319 317
304 308 310 308 311 310 311 312 319 324 323 320 319 319 317 317 317 318 320 318 317 318 317 318 318 318 319 318 318 319 318 318 319 318 320 319 317 317 319 320 321 322 321 320 320
305 311 312 311 311 310 312 314 321 322 316 316 316 318 318 317 317 318 317 317 318 317 318 318 319 318 319 318 317 318 317 319 323 323 320 319 321 321 319 319 320 324 322 321 319
307 311 314 309 308 310 313 316 317 315 313 313 315 319 317 315 315 316 317 319 319 318 325 327 321 319 319 319 318 318 318 316 319 320 321 321 320 320 320 321 321 324 322 320 320
307 311 311 308 309 312 315 316 314 312 310 310 312 313 313 313 313 313 315 318 317 316 315 323 328 325 325 324 321 320 319 321 319 320 321 321 321 323 325 323 322 323 321 322 321
310 314 308 308 310 314 317 313 310 310 308 309 308 310 310 310 310 312 315 315 312 314 314 318 324 326 324 325 324 322 322 320 321 324 326 325 324 324 328 325 324 322 321 321 320
306 312 308 309 311 310 307 308 307 308 308 307 309 308 308 308 310 310 312 311 309 312 313 310 318 323 322 321 321 321 324 322 324 321 322 322 323 321 324 323 324 324 324 321 319
307 311 308 308 307 307 307 307 307 307 306 306 306 306 306 305 307 308 309 309 308 308 312 310 312 316 318 318 319 323 324 319 321 327 325 320 322 322 323 323 324 323 324 322 319
308 308 307 306 306 307 307 307 307 305 305 304 304 304 304 304 303 304 304 305 305 306 310 308 311 313 314 314 312 314 316 316 325 326 327 327 325 323 325 325 324 323 325 323 322
306 307 305 304 305 306 307 306 306 305 304 304 304 303 303 302 302 301 302 302 303 305 305 307 311 310 309 308 309 311 312 313 314 318 327 326 326 324 324 323 322 322 325 324 323
305 305 304 304 307 306 306 306 305 304 304 304 304 303 302 302 302 301 301 300 301 302 303 303 306 306 304 306 307 308 309 311 311 312 313 322 323 320 322 321 320 319 321 325 325
302 303 303 304 305 305 305 306 305 304 305 304 303 303 303 304 303 302 301 300 300 300 300 301 302 303 303 304 305 306 307 310 311 312 313 313 316 318 316 324 321 319 318 317 322
Wind_Speed
27 27 27 27 26 25 26 25 21 18 17 16 14 13 13 13 15 18 11 19 16 22 8 9 15 15 17 7 9 5 2 7 9 14 18 15 14 2 9 24 6 6 17 23 31
28 29 28 29 28 28 29 24 21 19 16 15 13 12 12 12 16 20 29 26 20 19 22 13 9 12 5 5 5 6 5 13 10 18 17 16 18 5 8 11 18 18 19 32 33
30 30 31 30 29 29 27 22 18 16 15 12 10 10 9 8 6 10 17 31 25 20 25 18 18 8 9 8 10 6 12 11 13 20 15 21 13 9 16 7 21 27 23 20 17
31 31 31 31 29 29 23 20 17 13 13 10 8 8 6 1 5 4 3 20 26 21 18 16 8 8 7 10 12 13 11 15 18 23 17 18 10 10 3 10 23 22 19 14 11
33 33 33 32 30 28 22 19 17 15 13 8 6 5 2 4 12 13 4 16 23 20 19 9 9 8 8 7 10 11 13 15 14 24 20 17 6 9 7 17 23 24 20 16 10
35 35 35 32 30 27 22 20 17 14 12 6 6 5 3 8 19 21 18 20 21 21 17 14 9 10 9 9 10 8 13 16 16 13 16 10 6 4 14 8 20 22 16 13 12
37 37 37 33 30 27 22 19 16 12 7 5 6 5 6 18 3 16 19 15 19 21 11 23 26 10 6 9 11 11 9 15 13 14 12 5 9 8 13 4 23 18 14 10 10
40 39 39 34 28 26 22 18 16 11 5 5 5 4 7 20 10 27 26 23 16 21 26 28 29 12 7 6 7 7 6 8 11 7 8 8 12 8 12 13 19 19 14 10 9
41 41 40 34 27 25 23 20 17 8 4 5 5 4 9 13 9 19 20 18 22 26 28 25 3 2 4 4 6 6 9 9 8 9 6 9 6 10 2 9 16 17 12 10 8
44 43 40 34 27 25 22 24 9 3 3 2 10 5 8 7 15 19 16 14 9 7 6 4 2 3 5 2 13 9 6 8 8 7 9 10 9 8 7 7 11 17 16 12 11
46 44 39 32 26 20 22 8 3 1 6 7 7 6 17 12 8 7 14 13 9 5 8 8 4 8 11 12 11 8 12 11 11 15 12 11 9 16 17 7 8 10 15 14 13
48 46 38 30 25 13 14 4 10 10 13 14 22 26 30 31 20 9 15 8 8 9 6 7 12 11 13 16 17 16 14 15 11 9 14 18 25 11 17 9 11 10 9 14 10
50 46 35 28 15 9 8 18 18 20 5 13 18 17 20 22 22 8 11 8 10 11 12 11 11 16 19 17 17 15 16 11 13 17 8 6 19 19 17 9 20 14 16 13 16
51 45 30 27 6 21 10 24 24 15 4 7 6 8 9 3 5 10 14 11 9 15 13 14 13 18 18 20 15 12 10 13 16 6 7 5 6 6 7 8 5 8 15 14 18
50 40 24 13 15 11 24 26 22 9 4 5 6 4 5 7 5 9 20 8 14 14 10 19 15 17 17 15 10 9 8 7 6 6 5 15 1 8 8 8 13 12 10 14 16
51 34 21 7 13 16 25 25 17 1 6 4 6 6 6 9 11 6 7 7 7 9 12 16 17 16 16 16 12 7 5 8 6 3 6 14 7 8 6 12 10 18 17 14 14
49 28 12 9 5 24 24 10 1 3 14 12 12 14 10 9 14 11 6 8 7 4 6 12 18 19 17 13 11 4 3 3 4 3 8 8 9 14 8 9 9 13 21 19 18
46 17 8 6 19 22 19 3 3 10 16 16 16 16 6 11 13 20 13 10 9 11 10 10 12 16 20 15 8 7 8 6 8 4 8 7 7 15 14 20 19 4 10 20 18
40 19 10 16 22 16 3 1 5 9 14 16 15 7 9 21 13 12 17 17 12 24 11 6 20 16 17 17 13 8 11 8 5 5 3 5 9 17 22 12 22 7 11 10 11
27 11 10 26 21 10 1 4 6 13 11 13 10 10 13 15 13 15 10 14 14 17 14 11 7 7 14 9 14 6 10 4 1 8 9 8 8 9 13 13 9 10 10 9 10
9 4 22 35 15 1 1 5 8 13 15 9 11 9 12 13 16 13 6 10 26 20 14 9 5 6 8 4 3 3 13 6 5 5 6 3 6 1 4 4 6 7 9 10 10
14 4 27 31 5 4 7 10 10 14 12 9 9 11 11 14 5 8 9 14 23 21 13 15 5 4 10 21 16 12 4 8 4 7 5 8 11 8 4 1 16 8 8 8 9
7 4 19 24 4 5 9 12 12 12 12 12 10 9 10 8 7 13 13 17 21 17 12 12 5 6 10 6 7 4 4 7 3 7 9 4 6 2 6 10 9 10 20 5 7
3 4 5 4 5 5 6 7 7 12 8 10 8 7 7 7 9 10 14 12 19 17 16 11 4 6 6 14 15 15 18 9 3 3 4 9 10 16 9 8 9 13 9 14 15
3 4 3 5 7 10 7 8 7 7 8 7 6 9 8 6 9 9 14 14 14 11 5 3 4 10 16 20 19 20 20 13 10 5 6 13 13 15 16 7 13 9 8 10 13
4 4 5 12 8 10 8 5 8 8 7 6 4 9 6 6 7 8 10 8 6 8 10 4 7 12 19 19 18 22 20 15 12 12 14 8 16 1 2 17 21 16 9 8 11
13 14 4 6 9 10 7 9 10 8 6 10 10 7 10 11 5 6 6 7 8 8 10 10 9 10 18 16 17 13 14 12 12 8 11 10 14 6 6 5 3 10 9 7 3
Wind_Direction
358 355 352 349 346 341 335 327 317 308 302 297 284 273 277 280 281 277 240 233 232 246 267 255 236 236 251 258 257 233 245 264 264 275 281 312 328 269 100 122 119 159 143 148 158
357 354 350 347 345 341 335 327 318 311 305 295 279 268 275 290 296 263 249 246 244 250 230 237 248 214 236 247 238 196 204 241 243 268 284 301 328 179 104 114 113 120 133 146 157
356 353 350 347 344 341 337 333 323 316 313 298 275 263 269 305 286 248 271 234 232 242 223 232 244 239 220 236 243 234 238 260 269 276 298 302 313 323 128 113 127 134 144 154 162
356 353 349 345 343 341 341 340 331 322 320 302 272 253 263 292 245 344 313 197 206 215 206 236 262 270 238 229 241 248 246 247 263 272 284 287 303 320 260 162 137 138 147 153 160
356 353 350 346 343 342 338 337 331 319 313 294 259 237 237 222 247 252 331 189 195 202 214 220 233 250 243 244 245 234 245 250 250 277 271 280 284 283 310 160 148 147 152 158 167
357 353 350 347 342 340 335 334 326 319 307 267 237 219 233 254 250 246 211 181 194 201 216 224 227 234 262 241 246 249 247 256 252 224 262 278 268 331 286 200 146 147 155 161 162
357 353 349 346 341 338 332 332 328 323 302 236 212 207 259 240 253 188 185 199 211 209 217 227 238 242 244 258 260 260 275 257 253 242 249 253 284 266 270 126 145 147 152 156 170
356 352 348 344 340 336 328 325 324 317 290 217 196 198 254 272 276 256 244 205 216 226 220 228 234 230 234 281 314 289 291 257 257 255 235 168 250 259 277 162 150 153 160 161 173
354 351 347 343 339 334 322 320 315 295 263 201 183 196 267 285 226 244 239 216 214 227 232 242 297 266 290 285 310 267 244 266 272 257 241 183 229 258 228 159 157 156 159 158 168
353 350 346 340 336 332 316 325 314 250 206 231 263 249 256 244 242 223 239 228 225 207 254 237 76 292 307 214 229 243 259 247 251 261 259 252 232 246 224 214 168 163 166 173 168
352 349 345 339 334 335 329 340 358 356 237 221 201 228 294 250 123 186 227 226 233 231 202 237 176 221 238 246 248 249 236 255 226 231 223 264 245 218 236 161 240 170 173 175 173
351 350 345 337 334 325 315 317 345 293 292 242 246 252 253 266 282 197 215 211 209 239 237 232 231 224 234 243 239 247 255 265 283 268 217 224 232 240 207 218 185 208 186 178 169
349 351 345 335 327 333 309 5 337 342 286 286 241 235 237 232 249 223 187 228 217 220 238 231 234 233 233 247 249 239 231 248 249 274 267 225 241 241 206 211 222 197 196 189 179
348 350 344 338 345 335 359 344 334 344 302 274 198 206 228 126 286 230 231 190 231 234 229 247 252 253 251 239 234 253 257 245 240 248 245 157 262 244 188 196 225 200 203 191 191
347 349 341 345 313 326 340 327 319 323 321 180 119 122 153 162 251 202 211 221 218 231 225 254 254 254 261 263 246 241 275 271 268 248 293 287 94 257 179 208 228 247 196 199 192
344 348 334 6 318 328 329 318 308 291 249 220 140 192 203 209 233 259 153 203 253 225 254 266 277 267 271 279 254 243 249 293 290 216 248 246 186 253 229 208 218 229 237 202 193
342 341 317 305 282 339 331 319 7 229 338 357 356 348 351 340 330 319 209 194 202 243 267 270 264 275 276 286 290 183 156 302 311 282 225 235 251 243 259 238 209 221 234 216 187
341 338 319 279 331 338 327 347 254 307 25 346 343 321 315 319 334 338 310 296 215 208 229 248 269 241 260 254 232 238 175 182 219 219 256 274 258 257 237 261 266 58 255 202 178
341 346 312 358 344 334 15 300 14 17 354 346 330 337 6 348 357 352 345 360 42 44 1 307 265 261 255 252 244 243 246 210 184 267 296 249 277 262 253 250 243 145 96 94 97
337 322 357 353 340 308 348 250 64 0 10 3 15 5 344 345 346 356 324 20 5 17 2 338 304 299 300 308 269 188 235 235 265 201 245 259 267 265 312 205 151 126 122 107 104
346 314 0 349 345 54 295 43 18 12 34 19 358 334 3 3 344 343 342 356 19 356 348 15 341 323 326 248 303 262 271 212 147 178 196 227 262 118 343 55 358 143 128 122 114
334 337 11 355 39 360 27 3 322 31 40 12 25 10 12 334 316 326 322 1 22 9 4 7 280 272 266 293 303 305 286 349 215 255 204 193 249 276 348 146 232 166 101 128 140
321 280 14 9 43 5 354 342 0 23 20 22 8 12 352 345 336 355 348 336 7 9 19 354 332 329 330 331 326 298 49 28 123 12 296 177 257 162 355 6 60 59 129 130 110
304 329 356 342 22 13 341 325 321 33 23 14 358 343 352 352 344 322 332 352 349 344 12 5 314 328 304 316 322 312 317 345 122 143 294 271 315 311 40 11 7 29 30 64 38
351 12 27 321 330 314 298 296 348 0 13 4 348 344 359 339 319 320 329 331 329 325 8 76 287 317 324 323 318 306 305 315 301 251 166 274 293 298 348 27 2 38 14 47 55
19 352 342 298 308 293 296 30 1 345 341 307 304 333 323 296 281 312 326 324 312 315 309 283 262 301 301 310 308 306 304 283 283 293 297 231 269 336 317 6 350 354 358 41 56
350 347 300 296 304 314 2 352 324 301 290 343 340 318 294 286 325 319 292 282 273 261 265 272 268 275 276 291 306 303 281 301 296 290 302 281 276 285 315 117 248 313 332 5 63